TimeEDT,TemperatureF,Dew PointF,Humidity,Sea Level PressureIn,VisibilityMPH,Wind Direction,Wind SpeedMPH,Gust SpeedMPH,PrecipitationIn,Events,Conditions,WindDirDegrees,DateUTC
12:53 AM,73.0,64.9,76,30.02,10.0,South,5.8,-,N/A,,Clear,190,2013-05-12 04:53:00
1:53 AM,72.0,64.0,76,30.01,10.0,SSW,5.8,-,N/A,,Clear,200,2013-05-12 05:53:00
2:53 AM,73.0,64.0,73,29.99,10.0,South,8.1,-,N/A,,Clear,180,2013-05-12 06:53:00
3:53 AM,72.0,64.9,78,29.97,10.0,SSW,3.5,-,N/A,,Clear,200,2013-05-12 07:53:00
4:53 AM,70.0,64.0,81,29.98,10.0,NW,5.8,-,N/A,,Clear,320,2013-05-12 08:53:00
5:28 AM,69.8,64.4,83,29.98,10.0,NW,3.5,-,N/A,,Mostly Cloudy,310,2013-05-12 09:28:00
5:43 AM,69.8,64.4,83,29.97,10.0,Calm,Calm,-,N/A,,Scattered Clouds,0,2013-05-12 09:43:00
5:53 AM,69.1,64.9,87,29.96,10.0,Calm,Calm,-,N/A,,Partly Cloudy,0,2013-05-12 09:53:00
6:53 AM,66.9,64.9,93,30.00,10.0,West,4.6,-,0.00,,Mostly Cloudy,270,2013-05-12 10:53:00
7:08 AM,69.8,66.2,88,30.01,10.0,West,4.6,-,N/A,,Scattered Clouds,260,2013-05-12 11:08:00
7:53 AM,71.1,66.9,87,30.01,10.0,SW,4.6,-,N/A,,Clear,230,2013-05-12 11:53:00
8:53 AM,75.0,69.1,82,30.02,10.0,SW,9.2,-,N/A,,Clear,230,2013-05-12 12:53:00
9:53 AM,79.0,69.1,72,30.02,10.0,West,11.5,-,N/A,,Partly Cloudy,260,2013-05-12 13:53:00
10:53 AM,81.0,66.9,62,30.03,10.0,WNW,10.4,16.1,N/A,,Mostly Cloudy,290,2013-05-12 14:53:00
11:53 AM,84.0,66.0,55,30.02,10.0,West,8.1,-,N/A,,Clear,260,2013-05-12 15:53:00
12:53 PM,86.0,64.9,49,30.00,10.0,West,11.5,16.1,N/A,,Clear,280,2013-05-12 16:53:00
1:53 PM,87.1,64.9,48,29.98,10.0,West,10.4,19.6,N/A,,Clear,260,2013-05-12 17:53:00
2:53 PM,88.0,64.9,46,29.97,10.0,West,13.8,18.4,N/A,,Partly Cloudy,280,2013-05-12 18:53:00
3:53 PM,88.0,64.9,46,29.95,10.0,West,16.1,20.7,N/A,,Partly Cloudy,260,2013-05-12 19:53:00
4:53 PM,87.1,64.0,46,29.95,10.0,WNW,17.3,21.9,N/A,,Scattered Clouds,300,2013-05-12 20:53:00
5:53 PM,87.1,63.0,44,29.95,10.0,WNW,16.1,23.0,N/A,,Partly Cloudy,300,2013-05-12 21:53:00
6:53 PM,84.0,63.0,49,29.96,10.0,West,13.8,-,N/A,,Clear,260,2013-05-12 22:53:00
7:53 PM,81.0,63.0,54,29.98,10.0,West,10.4,-,N/A,,Clear,280,2013-05-12 23:53:00
8:53 PM,79.0,63.0,58,29.99,10.0,West,9.2,-,N/A,,Clear,280,2013-05-13 00:53:00
9:53 PM,77.0,63.0,62,30.02,10.0,West,6.9,-,N/A,,Clear,270,2013-05-13 01:53:00
10:53 PM,75.0,63.0,66,30.04,10.0,West,6.9,-,N/A,,Clear,260,2013-05-13 02:53:00
11:53 PM,73.0,64.0,73,30.04,10.0,West,8.1,-,N/A,,Clear,270,2013-05-13 03:53:00